This is the latest recevied weather packets stored in our database for station/object WA1OUI. If no packets are shown the sender has not sent any weather packets the latest 10 day(s).
| Time | Temp. | Humidity | Pressure | Rain* | Wind** | Luminosity | Snow |
|---|---|---|---|---|---|---|---|
| 1777712128 | 8.33° C | 95% | 1009.6 hPa | 1.27 mm | - | 0 W/m² | - |
| 1777711826 | 8.33° C | 95% | 1009.2 hPa | 0.51 mm | - | 0 W/m² | - |
| 1777711522 | 8.33° C | 95% | 1009.8 hPa | 0 mm | - | 0 W/m² | - |
| 1777711217 | 8.33° C | 95% | 1009.7 hPa | 0 mm | - | 0 W/m² | - |
| 1777710915 | 8.33° C | 94% | 1009.7 hPa | 0 mm | - | 0 W/m² | - |
| 1777710611 | 8.33° C | 94% | 1009.6 hPa | 0 mm | - | 0 W/m² | - |
| 1777710308 | 8.33° C | 94% | 1009.4 hPa | 0 mm | - | 0 W/m² | - |
| 1777710006 | 8.33° C | 94% | 1009.3 hPa | 0 mm | - | 0 W/m² | - |
| 1777709703 | 8.33° C | 94% | 1009.5 hPa | 0 mm | - | 0 W/m² | - |
| 1777709400 | 8.33° C | 94% | 1009.5 hPa | 0 mm | - | 0 W/m² | - |
| 1777709097 | 8.33° C | 93% | 1009.5 hPa | 0 mm | - | 0 W/m² | - |
| 1777708795 | 8.89° C | 93% | 1009.3 hPa | 0.51 mm | - | 0 W/m² | - |
| 1777708492 | 8.89° C | 92% | 1009.2 hPa | 0.51 mm | - | 0 W/m² | - |
| 1777708190 | 8.89° C | 92% | 1009.4 hPa | 0 mm | - | 0 W/m² | - |
| 1777707583 | 8.89° C | 90% | 1009.6 hPa | 0.51 mm | - | 0 W/m² | - |
| 1777707279 | 8.89° C | 89% | 1009.6 hPa | 1.27 mm | - | 0 W/m² | - |
| 1777706978 | 8.89° C | 87% | 1009.7 hPa | 1.27 mm | - | 0 W/m² | - |
| 1777706674 | 8.89° C | 86% | 1009.5 hPa | 0 mm | - | 0 W/m² | - |
| 1777706372 | 8.89° C | 85% | 1009.5 hPa | 0 mm | - | 0 W/m² | - |
| 1777706069 | 9.44° C | 84% | 1009.2 hPa | 0 mm | - | 0 W/m² | - |
| 1777705768 | 9.44° C | 83% | 1009.5 hPa | 0 mm | - | 0 W/m² | - |
| 1777705465 | 9.44° C | 83% | 1009.4 hPa | 0 mm | - | 0 W/m² | - |
| 1777705164 | 9.44° C | 82% | 1009.3 hPa | 0 mm | - | 0 W/m² | - |
| 1777704862 | 9.44° C | 80% | 1009.5 hPa | 0.51 mm | - | 0 W/m² | - |
| 1777704560 | 10° C | 78% | 1009.4 hPa | 0.51 mm | - | 0 W/m² | - |
* Rain latest hour (hover to see other rain measurements)
** Current wind speed in m/s (hover to see current wind gust speed)